EW5945 Weather Reports


Display with metric or nautical units.
time (UTC)temp
F
wind
direction
speed
MPH
gust
MPH
rain 1hr
in
rain 24hr
in
rain mn
in
humidity
%
barometer
mb
20180624033346 80 180 2.0 7.0 0.00 0.00 0.00 94 1011.6
20180624032838 80 225 3.0 7.0 0.00 0.00 0.00 94 1011.6
20180624032331 80 225 5.0 7.0 0.00 0.00 0.00 94 1011.5
20180624031823 80 180 1.0 5.0 0.00 0.00 0.00 94 1011.6
20180624031316 80 180 2.0 5.0 0.00 0.00 0.00 94 1011.5
20180624030809 80 225 4.0 5.0 0.00 0.00 0.00 94 1011.6
20180624030305 80 180 2.0 5.0 0.00 0.00 0.00 94 1011.5
20180624024129 80 225 2.0 4.0 0.00 0.00 0.00 95 1011.5
20180624023622 80 135 2.0 4.0 0.00 0.00 0.00 95 1011.8
20180624023114 80 225 1.0 4.0 0.00 0.00 0.00 95 1011.8
20180624022606 80 225 0.0 4.0 0.00 0.00 0.00 95 1011.7
20180624022059 80 180 0.0 3.0 0.00 0.00 0.00 95 1011.5
20180624021552 80 225 0.0 2.0 0.00 0.00 0.00 94 1011.2
20180624021045 80 225 1.0 3.0 0.00 0.00 0.00 94 1011.0
20180624020536 81 203 1.0 3.0 0.00 0.00 0.00 93 1010.7
20180624020029 81 180 1.0 3.0 0.00 0.00 0.00 93 1010.8
20180624015521 81 180 0.0 5.0 0.00 0.00 0.00 93 1010.6
20180624015014 81 180 1.0 6.0 0.00 0.00 0.00 93 1010.5
20180624014506 81 180 3.0 6.0 0.00 0.00 0.00 93 1010.5
20180624013959 81 225 0.0 4.0 0.00 0.00 0.00 93 1010.6
20180624013451 82 180 1.0 6.0 0.00 0.00 0.00 93 1010.5
20180624012943 82 135 0.0 6.0 0.00 0.00 0.00 93 1010.6
20180624012437 82 180 0.0 6.0 0.00 0.00 0.00 93 1010.4
20180624011929 82 135 0.0 6.0 0.00 0.00 0.00 92 1010.4
20180624011421 82 180 1.0 5.0 0.00 0.00 0.00 92 1010.2
20180624010913 82 180 0.0 5.0 0.00 0.00 0.00 91 1010.0
20180624010405 82 225 1.0 9.0 0.00 0.00 0.00 91 1010.1
20180624005858 82 180 0.0 11.0 0.00 0.00 0.00 91 1010.1
20180624005350 82 180 1.0 11.0 0.00 0.00 0.00 92 1009.9
20180624004842 82 180 5.0 11.0 0.00 0.00 0.00 92 1009.9
20180624004335 83 225 2.0 7.0 0.00 0.00 0.00 91 1010.0
20180624003827 83 180 5.0 7.0 0.00 0.00 0.00 90 1010.0
20180624003319 83 225 2.0 14.0 0.00 0.00 0.00 90 1009.9
20180624002811 83 135 1.0 14.0 0.00 0.00 0.00 89 1009.8
20180624002304 83 180 4.0 9.0 0.00 0.00 0.00 89 1009.8
20180624001756 83 180 3.0 11.0 0.00 0.00 0.00 88 1009.8
20180624001249 84 315 5.0 11.0 0.00 0.00 0.00 88 1009.9
20180624000742 84 135 2.0 9.0 0.00 0.00 0.00 87 1009.7
20180624000234 84 135 1.0 10.0 0.00 0.00 0.00 86 1009.8
20180623235727 84 225 5.0 10.0 0.00 0.00 0.00 85 1009.9
20180623235218 84 180 2.0 10.0 0.00 0.00 0.00 84 1010.0
20180623234712 85 225 4.0 10.0 0.00 0.00 0.00 84 1009.7
20180623234203 85 225 2.0 12.0 0.00 0.00 0.00 83 1009.9
20180623233656 85 225 7.0 16.0 0.00 0.00 0.00 82 1009.7
20180623233149 85 225 7.0 16.0 0.00 0.00 0.00 81 1009.8
20180623232642 85 180 5.0 11.0 0.00 0.00 0.00 81 1009.8
20180623232134 85 180 2.0 14.0 0.00 0.00 0.00 79 1009.8
20180623231626 86 225 5.0 14.0 0.00 0.00 0.00 79 1009.9
20180623231118 86 180 5.0 17.0 0.00 0.00 0.00 77 1010.2
20180623230610 86 180 1.0 17.0 0.00 0.00 0.00 77 1009.9
20180623230109 87 225 5.0 9.0 0.00 0.00 0.00 76 1009.9
20180623224338 87 180 3.0 13.0 0.00 0.00 0.00 75 1010.4
20180623223830 88 225 5.0 9.0 0.00 0.00 0.00 70 1010.3
20180623223322 87 180 1.0 9.0 0.00 0.00 0.00 72 1010.2
20180623222814 88 225 5.0 13.0 0.00 0.00 0.00 72 1010.1
20180623222307 88 225 4.0 13.0 0.00 0.00 0.00 72 1009.9
20180623221800 88 225 5.0 13.0 0.00 0.00 0.00 73 1010.0
20180623221253 88 225 6.0 12.0 0.00 0.00 0.00 74 1010.0
20180623220745 88 225 2.0 20.0 0.00 0.00 0.00 75 1010.0
20180623220237 89 180 5.0 20.0 0.00 0.00 0.00 75 1009.9
20180623215729 88 90 2.0 18.0 0.00 0.00 0.00 77 1009.9
20180623215222 88 180 4.0 20.0 0.00 0.00 0.00 77 1009.8
20180623214715 88 180 6.0 20.0 0.00 0.00 0.00 76 1009.9
20180623214207 88 180 3.0 15.0 0.00 0.00 0.00 76 1010.0
20180623213659 88 248 5.0 15.0 0.00 0.00 0.00 74 1010.0
20180623213152 89 180 4.0 14.0 0.00 0.00 0.00 72 1010.0
20180623212644 89 180 9.0 16.0 0.00 0.00 0.00 74 1010.1
20180623212137 89 180 9.0 17.0 0.00 0.00 0.00 75 1010.1
20180623211629 88 203 13.0 19.0 0.00 0.00 0.00 74 1010.2
20180623211121 89 225 9.0 19.0 0.00 0.00 0.00 72 1010.4
20180623210613 89 225 9.0 19.0 0.00 0.00 0.00 71 1010.2
20180623210106 89 225 11.0 16.0 0.00 0.00 0.00 72 1010.3
20180623205559 89 225 10.0 16.0 0.00 0.00 0.00 72 1010.2
20180623205051 88 225 4.0 16.0 0.00 0.00 0.00 75 1010.5
20180623204544 88 180 4.0 11.0 0.00 0.00 0.00 76 1010.5
20180623204036 89 225 5.0 11.0 0.00 0.00 0.00 73 1010.1
20180623203528 89 135 2.0 9.0 0.00 0.00 0.00 76 1010.6
20180623203020 87 180 2.0 9.0 0.00 0.00 0.00 76 1010.4
20180623202513 88 90 1.0 10.0 0.00 0.00 0.00 73 1010.4
20180623202006 89 180 5.0 14.0 0.00 0.00 0.00 71 1010.7
20180623201458 91 225 4.0 14.0 0.00 0.00 0.00 69 1010.6
20180623200950 91 135 3.0 11.0 0.00 0.00 0.00 68 1010.2
20180623200443 92 135 1.0 11.0 0.00 0.00 0.00 68 1010.4
20180623195938 92 225 2.0 17.0 0.00 0.00 0.00 69 1010.2
20180623195428 92 180 2.0 17.0 0.00 0.00 0.00 70 1010.5
20180623194921 92 225 7.0 17.0 0.00 0.00 0.00 67 1010.5
20180623194412 92 225 1.0 9.0 0.00 0.00 0.00 67 1010.5
20180623193906 92 135 2.0 11.0 0.00 0.00 0.00 67 1010.3
20180623193358 92 180 4.0 12.0 0.00 0.00 0.00 66 1010.3
20180623192849 92 203 4.0 12.0 0.00 0.00 0.00 67 1010.3
20180623192343 92 90 5.0 13.0 0.00 0.00 0.00 67 1010.3
20180623191835 92 180 2.0 13.0 0.00 0.00 0.00 66 1010.4
20180623191327 93 225 3.0 9.0 0.00 0.00 0.00 65 1010.3
20180623190819 93 135 3.0 11.0 0.00 0.00 0.00 66 1010.5
20180623190312 92 180 3.0 11.0 0.00 0.00 0.00 65 1010.7
20180623185804 92 270 4.0 17.0 0.00 0.00 0.00 66 1010.6
20180623185257 92 180 4.0 17.0 0.00 0.00 0.00 62 1010.8
20180623184749 93 90 5.0 10.0 0.00 0.00 0.00 62 1010.8
20180623184242 92 270 4.0 12.0 0.00 0.00 0.00 63 1010.8
20180623183734 92 180 2.0 12.0 0.00 0.00 0.00 64 1010.9
20180623183227 92 225 2.0 11.0 0.00 0.00 0.00 64 1010.9
20180623182719 92 180 4.0 15.0 0.00 0.00 0.00 66 1011.1
20180623182211 92 180 6.0 16.0 0.00 0.00 0.00 67 1011.2
20180623181703 91 180 7.0 16.0 0.00 0.00 0.00 64 1011.3
20180623181156 91 135 2.0 12.0 0.00 0.00 0.00 65 1011.4
20180623180648 91 248 4.0 9.0 0.00 0.00 0.00 66 1011.4
20180623180142 90 180 1.0 14.0 0.00 0.00 0.00 67 1011.6
20180623175634 90 180 1.0 14.0 0.00 0.00 0.00 65 1011.5
20180623175126 92 225 7.0 10.0 0.00 0.00 0.00 67 1011.5
20180623174618 90 180 2.0 15.0 0.00 0.00 0.00 65 1011.6
20180623174111 90 135 5.0 18.0 0.00 0.00 0.00 59 1011.6
20180623173603 91 135 4.0 18.0 0.00 0.00 0.00 58 1011.5
20180623173056 92 180 7.0 16.0 0.00 0.00 0.00 60 1011.7
20180623172548 92 225 5.0 18.0 0.00 0.00 0.00 59 1011.7
20180623172041 92 180 9.0 18.0 0.00 0.00 0.00 60 1011.9
20180623171533 92 225 5.0 10.0 0.00 0.00 0.00 60 1011.8
20180623171025 92 225 6.0 10.0 0.00 0.00 0.00 59 1011.7
20180623170518 92 225 3.0 11.0 0.00 0.00 0.00 58 1012.0
20180623170010 92 225 1.0 12.0 0.00 0.00 0.00 59 1011.9
20180623165502 92 225 6.0 13.0 0.00 0.00 0.00 59 1012.2
20180623164954 91 180 6.0 13.0 0.00 0.00 0.00 59 1012.0
20180623164447 90 180 3.0 21.0 0.00 0.00 0.00 58 1012.1
20180623163940 91 225 6.0 21.0 0.00 0.00 0.00 60 1012.2
20180623163432 90 315 9.0 16.0 0.00 0.00 0.00 60 1012.2
20180623162924 90 180 5.0 15.0 0.00 0.00 0.00 61 1012.2
20180623162416 90 225 5.0 14.0 0.00 0.00 0.00 62 1012.4
20180623161909 90 180 5.0 15.0 0.00 0.00 0.00 62 1012.3
20180623161402 90 225 7.0 15.0 0.00 0.00 0.00 62 1012.2
20180623160854 90 180 4.0 14.0 0.00 0.00 0.00 62 1012.2
20180623160346 89 270 4.0 14.0 0.00 0.00 0.00 64 1012.4
20180623155838 89 225 5.0 15.0 0.00 0.00 0.00 65 1012.4
20180623155331 89 135 7.0 15.0 0.00 0.00 0.00 63 1012.5
20180623154823 89 180 4.0 12.0 0.00 0.00 0.00 64 1012.4
20180623154315 89 225 4.0 14.0 0.00 0.00 0.00 64 1012.4
20180623153808 89 270 9.0 14.0 0.00 0.00 0.00 64 1012.5
20180623153301 89 180 4.0 15.0 0.00 0.00 0.00 65 1012.5
20180623152756 89 248 10.0 15.0 0.00 0.00 0.00 66 1012.5
20180623152246 89 225 3.0 15.0 0.00 0.00 0.00 65 1012.5
20180623151738 88 225 4.0 19.0 0.00 0.00 0.00 66 1012.5
20180623151230 88 180 10.0 19.0 0.00 0.00 0.00 65 1012.8
20180623150723 88 225 9.0 12.0 0.00 0.00 0.00 67 1012.7
20180623150215 88 180 4.0 16.0 0.00 0.00 0.00 67 1012.8
20180623145708 88 315 3.0 16.0 0.00 0.00 0.00 67 1012.8
20180623145200 88 225 5.0 14.0 0.00 0.00 0.00 67 1013.0
20180623144652 87 180 4.0 14.0 0.00 0.00 0.00 69 1013.0
20180623144145 87 180 6.0 15.0 0.00 0.00 0.00 68 1013.0
20180623143637 87 180 6.0 15.0 0.00 0.00 0.00 69 1013.0
20180623143130 86 248 11.0 15.0 0.00 0.00 0.00 69 1012.9
20180623142622 86 180 9.0 13.0 0.00 0.00 0.00 71 1012.7
20180623142115 86 180 7.0 14.0 0.00 0.00 0.00 71 1012.8
20180623141606 86 225 6.0 14.0 0.00 0.00 0.00 72 1012.9
20180623141100 86 203 5.0 11.0 0.00 0.00 0.00 73 1012.8
20180623140552 85 225 6.0 11.0 0.00 0.00 0.00 74 1012.9
20180623140044 85 270 7.0 10.0 0.00 0.00 0.00 74 1012.7
20180623135537 85 270 3.0 18.0 0.00 0.00 0.00 75 1012.8
20180623135029 85 270 4.0 18.0 0.00 0.00 0.00 75 1012.7
20180623134521 85 180 4.0 13.0 0.00 0.00 0.00 78 1012.7
20180623134014 84 270 5.0 12.0 0.00 0.00 0.00 80 1012.8
20180623133506 84 225 6.0 10.0 0.00 0.00 0.00 82 1012.7
20180623132958 84 225 5.0 9.0 0.00 0.00 0.00 84 1012.8
20180623132451 84 225 3.0 9.0 0.00 0.00 0.00 86 1012.6
20180623131944 84 270 4.0 9.0 0.00 0.00 0.00 86 1012.8
20180623131436 84 225 3.0 9.0 0.00 0.00 0.00 89 1012.6
20180623130928 84 180 2.0 7.0 0.00 0.00 0.00 90 1012.8
20180623130421 83 225 3.0 7.0 0.00 0.00 0.00 89 1012.7
20180623125913 83 225 2.0 7.0 0.00 0.00 0.00 89 1012.8
20180623125406 83 180 3.0 9.0 0.00 0.00 0.00 89 1012.6
20180623124858 83 180 4.0 9.0 0.00 0.00 0.00 89 1012.5
20180623124351 83 180 4.0 13.0 0.00 0.00 0.00 89 1012.5
20180623123843 83 270 5.0 13.0 0.00 0.00 0.00 89 1012.2
20180623123336 83 225 5.0 9.0 0.00 0.00 0.00 90 1012.1
20180623122828 83 225 6.0 14.0 0.00 0.00 0.00 91 1012.0
20180623122320 83 225 5.0 14.0 0.00 0.00 0.00 92 1011.9
20180623121813 82 180 5.0 7.0 0.00 0.00 0.00 93 1011.9
20180623121305 82 180 2.0 7.0 0.00 0.00 0.00 92 1011.7
20180623120757 82 180 2.0 10.0 0.00 0.00 0.00 92 1011.7
20180623120250 82 180 1.0 10.0 0.00 0.00 0.00 93 1011.6
20180623115744 82 248 4.0 9.0 0.00 0.00 0.00 93 1011.5
20180623115235 82 180 2.0 7.0 0.00 0.00 0.00 94 1011.3
20180623114728 81 180 0.0 7.0 0.00 0.00 0.00 94 1011.2
20180623114220 80 225 4.0 7.0 0.00 0.00 0.00 95 1011.1
20180623113712 80 225 5.0 12.0 0.00 0.00 0.00 96 1011.0
20180623113204 80 180 6.0 12.0 0.00 0.00 0.00 96 1011.1
20180623112657 80 203 2.0 12.0 0.00 0.00 0.00 96 1011.2
20180623112149 80 225 5.0 12.0 0.00 0.00 0.00 96 1011.1
20180623111642 80 225 2.0 9.0 0.00 0.00 0.00 97 1011.0
20180623111135 80 180 3.0 9.0 0.00 0.00 0.00 97 1010.8
20180623110627 80 225 3.0 6.0 0.00 0.00 0.00 97 1011.0
20180623110121 80 180 0.0 5.0 0.00 0.00 0.00 98 1010.8
20180623105615 78 180 1.0 5.0 0.00 0.00 0.00 99 1010.9
20180623105104 78 225 0.0 5.0 0.00 0.00 0.00 99 1011.0
20180623104558 78 180 2.0 5.0 0.00 0.00 0.00 99 1010.7
20180623104048 78 225 1.0 5.0 0.00 0.00 0.00 99 1010.8
20180623103541 78 225 2.0 4.0 0.00 0.00 0.00 99 1010.8
20180623103034 78 180 2.0 5.0 0.00 0.00 0.00 99 1010.7
20180623102525 78 180 2.0 5.0 0.00 0.00 0.00 99 1010.7
20180623102019 78 180 1.0 3.0 0.00 0.00 0.00 99 1010.6
20180623101511 78 180 0.0 0.0 0.00 0.00 0.00 98 1010.5
20180623101003 78 180 0.0 0.0 0.00 0.00 0.00 98 1010.4
20180623100455 78 180 0.0 0.0 0.00 0.00 0.00 98 1010.4
20180623095948 78 180 0.0 0.0 0.00 0.00 0.00 98 1010.4
20180623095441 77 180 0.0 1.0 0.00 0.00 0.00 98 1010.4
20180623094933 77 180 0.0 1.0 0.00 0.00 0.00 97 1010.3
20180623094426 77 180 0.0 1.0 0.00 0.00 0.00 97 1010.2
20180623093916 77 180 0.0 1.0 0.00 0.00 0.00 97 1010.3
20180623093409 77 225 0.0 0.0 0.00 0.00 0.00 97 1010.3
20180623092902 77 225 0.0 0.0 0.00 0.00 0.00 97 1010.1
20180623092353 78 225 0.0 1.0 0.00 0.00 0.00 97 1010.4
20180623091338 78 225 0.0 3.0 0.00 0.00 0.00 97 1010.2
20180623090830 78 225 2.0 3.0 0.00 0.00 0.00 97 1010.1
20180623090324 78 225 0.0 3.0 0.00 0.00 0.00 96 1010.0
20180623085816 78 180 0.0 3.0 0.00 0.00 0.00 96 1010.1
20180623085308 78 225 0.0 1.0 0.00 0.00 0.00 96 1010.1
20180623084800 78 225 0.0 2.0 0.00 0.00 0.00 96 1010.3
20180623084254 78 225 0.0 4.0 0.00 0.00 0.00 96 1010.1
20180623083745 78 225 1.0 4.0 0.00 0.00 0.00 96 1010.0
20180623083238 78 225 1.0 5.0 0.00 0.00 0.00 96 1010.1
20180623082731 78 180 1.0 5.0 0.00 0.01 0.00 96 1009.9
20180623082223 78 225 1.0 5.0 0.00 0.01 0.00 97 1010.0
20180623081716 78 225 4.0 5.0 0.00 0.01 0.00 96 1010.0
20180623081207 78 180 0.0 3.0 0.00 0.01 0.00 96 1009.7
20180623080700 78 180 0.0 2.0 0.00 0.01 0.00 96 1009.8
20180623080152 78 180 0.0 0.0 0.00 0.01 0.00 96 1009.7
20180623075645 78 180 0.0 2.0 0.00 0.01 0.00 96 1009.6
20180623075137 78 180 0.0 3.0 0.00 0.01 0.00 95 1009.7
20180623074630 78 225 1.0 3.0 0.00 0.01 0.00 95 1009.8
20180623074122 78 180 0.0 4.0 0.00 0.01 0.00 95 1009.8
20180623073615 78 225 0.0 4.0 0.00 0.01 0.00 95 1009.6
20180623073107 78 225 0.0 5.0 0.00 0.01 0.00 95 1009.8
20180623072559 78 225 0.0 5.0 0.00 0.01 0.00 95 1009.8
20180623072051 78 225 2.0 5.0 0.00 0.01 0.00 95 1009.9
20180623071544 78 225 1.0 3.0 0.00 0.01 0.00 95 1009.8
20180623071036 78 225 0.0 2.0 0.00 0.01 0.00 95 1009.8
20180623070529 78 225 0.0 5.0 0.00 0.01 0.00 95 1009.7
20180623070021 78 225 0.0 5.0 0.00 0.01 0.00 95 1009.9
20180623065513 78 203 0.0 5.0 0.00 0.01 0.00 94 1010.0
20180623065006 78 315 0.0 3.0 0.00 0.01 0.00 94 1010.2
20180623064459 78 225 0.0 5.0 0.00 0.01 0.00 94 1010.0
20180623063951 78 180 1.0 5.0 0.00 0.01 0.00 94 1010.3
20180623063444 78 225 4.0 5.0 0.00 0.01 0.00 94 1010.2
20180623062935 80 180 1.0 7.0 0.00 0.01 0.00 92 1010.3
20180623062431 78 180 2.0 7.0 0.00 0.01 0.00 93 1010.3
20180623061921 78 225 3.0 5.0 0.00 0.01 0.00 93 1010.3
20180623061412 78 180 1.0 3.0 0.00 0.01 0.00 92 1010.3
20180623060906 80 180 0.0 4.0 0.00 0.01 0.00 91 1010.3
20180623060358 80 180 1.0 6.0 0.00 0.01 0.00 91 1010.2
20180623055850 80 180 4.0 7.0 0.00 0.01 0.00 91 1010.3
20180623055342 80 180 3.0 7.0 0.00 0.01 0.00 91 1010.3
20180623054835 80 203 2.0 6.0 0.00 0.01 0.00 90 1010.1
20180623054328 80 225 1.0 6.0 0.00 0.01 0.00 91 1010.2
20180623053820 78 225 3.0 6.0 0.00 0.01 0.00 92 1010.0
20180623053312 78 135 3.0 5.0 0.00 0.01 0.00 92 1009.9
20180623052804 78 180 2.0 4.0 0.00 0.01 0.00 91 1009.9
20180623052258 78 225 1.0 2.0 0.00 0.01 0.00 90 1009.8
20180623051750 80 225 0.0 2.0 0.00 0.01 0.00 89 1009.7
20180623051242 80 225 1.0 2.0 0.00 0.01 0.00 88 1009.9
20180623050734 80 225 1.0 4.0 0.00 0.01 0.00 88 1009.8
20180623050226 80 225 0.0 6.0 0.00 0.01 0.00 88 1009.6
20180623045719 80 180 1.0 6.0 0.00 0.01 0.00 88 1009.6
20180623045211 80 180 1.0 6.0 0.00 0.01 0.00 87 1009.4
20180623044704 80 180 1.0 6.0 0.00 0.01 0.00 86 1009.5
20180623044156 80 180 1.0 6.0 0.00 0.01 0.00 86 1009.6
20180623043649 80 225 2.0 7.0 0.00 0.01 0.00 86 1009.7
20180623043141 80 225 1.0 7.0 0.00 0.01 0.00 86 1009.6
20180623042633 80 180 2.0 9.0 0.00 0.01 0.00 85 1009.7
20180623042126 80 180 5.0 9.0 0.00 0.01 0.00 85 1009.6
20180623041621 80 180 2.0 9.0 0.00 0.01 0.00 85 1009.6
20180623041111 80 180 4.0 6.0 0.00 0.01 0.00 85 1009.6
20180623040603 80 225 2.0 6.0 0.00 0.01 0.00 85 1009.7
20180623040055 81 180 2.0 6.0 0.00 0.01 0.00 84 1009.7
20180623035547 81 180 4.0 9.0 0.00 0.01 0.01 83 1009.6
20180623035040 81 180 1.0 12.0 0.00 0.01 0.01 83 1009.7
20180623034533 81 180 5.0 12.0 0.00 0.01 0.01 83 1009.7
20180623034025 81 225 2.0 9.0 0.00 0.01 0.01 84 1009.6